全部
Gunnedah Hospital Airport YXGU 天气
There is no TAF data available at YXGU or any nearby airports.
There is no METAR data available at YXGU. Showing METAR data for YGDH (2 mi N).
GUH近期METAR历史数据(YXGU无数据)
| Date | Time (AEST) | Flight Rules | Wind Dir. | Speed | Type | Height AGL (ft) | Visibility | Temp (°C) | Temp (°F) | Dew Point (°C) | Dew Point (°F) | Rel. Humid. | Pressure | Density Altitude | Remarks |
|---|---|---|---|---|---|---|---|---|---|---|---|---|---|---|---|
| 03-五月 | 15:00 | n/a | 50° | 5 kt | Missing | 27° | 80° | 8° | 46° | 30% | 1017 mb | 2,191 ft | |||
| 03-五月 | 14:00 | n/a | 120° | 5 kt | Missing | 28° | 82° | 9° | 48° | 30% | 1018 mb | 2,281 ft | |||
| 03-五月 | 13:00 | n/a | 100° | 7 kt | Missing | 26° | 78° | 8° | 46° | 32% | 1019 mb | 2,012 ft | |||
| 03-五月 | 12:00 | n/a | 90° | 9 kt | Missing | 26° | 78° | 8° | 46° | 32% | 1020 mb | 1,982 ft | |||
| 03-五月 | 11:00 | n/a | 50° | 6 kt | Missing | 25° | 77° | 9° | 48° | 36% | 1021 mb | 1,833 ft | Wind gusting to 16 KT | ||
| 03-五月 | 10:00 | n/a | 90° | 8 kt | Missing | 23° | 73° | 10° | 50° | 44% | 1022 mb | 1,563 ft | |||
| 03-五月 | 09:00 | n/a | 100° | 10 kt | Missing | 21° | 69° | 10° | 50° | 49% | 1022 mb | 1,323 ft | |||
| 03-五月 | 08:00 | n/a | 130° | 8 kt | Missing | 18° | 64° | 10° | 50° | 59% | 1022 mb | 963 ft | |||
| 03-五月 | 07:00 | n/a | 120° | 8 kt | Missing | 16° | 60° | 10° | 50° | 68% | 1021 mb | 753 ft | |||
| 03-五月 | 06:00 | n/a | 120° | 7 kt | Missing | 16° | 60° | 10° | 50° | 68% | 1021 mb | 753 ft | |||
| 03-五月 | 05:00 | n/a | 120° | 7 kt | Missing | 16° | 60° | 9° | 48° | 63% | 1021 mb | 753 ft | |||
| 03-五月 | 04:00 | n/a | 110° | 9 kt | Missing | 17° | 62° | 9° | 48° | 59% | 1020 mb | 902 ft | |||
| 03-五月 | 03:00 | n/a | 120° | 8 kt | Missing | 18° | 64° | 9° | 48° | 56% | 1021 mb | 993 ft | |||
| 03-五月 | 02:00 | n/a | 120° | 5 kt | Missing | 17° | 62° | 9° | 48° | 59% | 1021 mb | 873 ft | |||
| 03-五月 | 01:00 | n/a | 100° | 4 kt | Missing | 18° | 64° | 10° | 50° | 59% | 1021 mb | 993 ft | |||
| 03-五月 | 00:00 | n/a | 110° | 5 kt | Missing | 18° | 64° | 10° | 50° | 59% | 1021 mb | 993 ft | |||
| 02-五月 | 23:00 | n/a | 90° | 6 kt | Missing | 19° | 66° | 9° | 48° | 52% | 1021 mb | 1,113 ft | |||
| 02-五月 | 22:00 | n/a | 90° | 10 kt | Missing | 20° | 68° | 10° | 50° | 53% | 1021 mb | 1,233 ft | |||
| 02-五月 | 21:00 | n/a | 120° | 7 kt | Missing | 21° | 69° | 9° | 48° | 46% | 1021 mb | 1,353 ft | |||
| 02-五月 | 20:00 | n/a | 110° | 6 kt | Missing | 21° | 69° | 8° | 46° | 43% | 1021 mb | 1,353 ft | |||
| 02-五月 | 19:00 | n/a | 110° | 8 kt | Missing | 22° | 71° | 8° | 46° | 41% | 1020 mb | 1,502 ft | |||
| 02-五月 | 18:00 | n/a | 120° | 8 kt | Missing | 23° | 73° | 7° | 44° | 36% | 1019 mb | 1,652 ft | |||
| 02-五月 | 17:00 | n/a | 110° | 8 kt | Missing | 26° | 78° | 9° | 48° | 34% | 1019 mb | 2,012 ft | |||
| 02-五月 | 16:00 | n/a | 100° | 8 kt | Missing | 27° | 80° | 9° | 48° | 32% | 1019 mb | 2,132 ft |
登录
| 您的浏览器不支持. 升级您的浏览器 |
